Location: Unspecified
(0.0000°N, 0.0000°E)
Time: 02:06:38
(UTC+00:00)

Tiros 1 despin weight - All Passes

Search period start: 31 May 2016 00:00
Search period end: 10 June 2016 00:00
Orbit: 595 x 645 km, 48.2° (Epoch: 30 May)

Date Brightness Start Highest point End Pass type
(mag) Time Alt. Az. Time Alt. Az. Time Alt. Az.
31 May - 06:13:09 10° N 06:16:17 19° NE 06:19:25 10° E daylight
31 May - 07:53:49 10° WNW 07:57:43 30° SW 08:01:36 10° S daylight
31 May - 18:20:42 10° SSW 18:24:50 32° SE 18:28:59 10° ENE visible
31 May - 20:02:55 10° W 20:06:17 20° NW 20:09:42 10° N visible
01 Jun - 06:29:13 10° NNW 06:33:34 51° NE 06:37:52 10° SE daylight
01 Jun - 08:13:45 10° WSW 08:15:01 11° SW 08:16:17 10° SSW daylight
01 Jun - 18:37:25 10° SW 18:42:04 89° ESE 18:46:45 10° NE visible
02 Jun - 05:08:05 10° NNE 05:09:17 11° NE 05:10:31 10° ENE visible
02 Jun - 06:46:26 10° NW 06:50:47 53° SW 06:55:07 10° SSE daylight
02 Jun - 17:14:34 10° S 17:17:51 19° SE 17:21:09 10° E daylight
02 Jun - 18:55:09 10° WSW 18:59:19 32° NW 19:03:29 10° NNE visible
03 Jun - 05:22:41 10° N 05:26:37 29° NE 05:30:30 10° ESE visible
03 Jun - 07:04:51 10° W 07:08:02 19° SW 07:11:12 10° S daylight
03 Jun - 17:30:38 10° SSW 17:35:07 51° SE 17:39:37 10° NE daylight
03 Jun - 19:14:37 10° WNW 19:16:37 13° NW 19:18:36 10° NNW visible
04 Jun - 05:39:21 10° NW 05:43:51 86° NE 05:48:18 10° SE daylight
04 Jun - 16:09:30 10° SSE 16:10:51 11° SE 16:12:12 10° ESE daylight
04 Jun - 17:47:48 10° SW 17:52:20 56° NW 17:56:54 10° NNE daylight
05 Jun - 04:16:35 10° N 04:19:38 18° NE 04:22:41 10° E visible
05 Jun - 05:57:04 10° WNW 06:01:04 32° SW 06:05:04 10° SSE daylight
05 Jun - 16:24:09 10° S 16:28:09 29° SE 16:32:10 10° ENE daylight
05 Jun - 18:06:08 10° W 18:09:36 21° NW 18:13:05 10° N daylight
06 Jun - 04:32:33 10° NNW 04:36:54 48° NE 04:41:14 10° SE visible
06 Jun - 06:16:37 10° WSW 06:18:22 12° SW 06:20:06 10° SSW daylight
06 Jun - 16:40:47 10° SW 16:45:22 83° SE 16:50:01 10° NE daylight
07 Jun - 03:11:50 10° NE 03:12:37 10° NE 03:13:24 10° ENE visible
07 Jun - 04:49:42 10° NW 04:54:08 57° SW 04:58:32 10° SSE visible
07 Jun - 15:18:07 10° S 15:21:10 18° SE 15:24:14 10° E daylight
07 Jun - 16:58:26 10° WSW 17:02:37 34° NW 17:06:49 10° NNE daylight
08 Jun - 03:26:03 10° N 03:29:57 28° NE 03:33:49 10° ESE visible
08 Jun - 05:08:00 10° W 05:11:23 21° SW 05:14:44 10° S visible
08 Jun - 15:34:02 10° SSW 15:38:24 47° SE 15:42:50 10° NE daylight
08 Jun - 17:17:43 10° WNW 17:19:55 13° NW 17:22:07 10° NNW daylight
09 Jun - 03:42:38 10° NW 03:47:12 80° NE 03:51:41 10° SE visible
09 Jun - 14:13:51 10° SE 14:14:09 10° SE 14:14:27 10° SE daylight
09 Jun - 15:51:08 10° SW 15:55:38 60° NW 16:00:11 10° NNE daylight
